Weather History for KGBG - November, 2013

Change the Weather History Date:

Sunday, November 3, 2013

  Actual Average Record
Temperature  
Mean Temperature 39 °F -  
Max Temperature 53 °F 52 °F 77 °F (1964)
Min Temperature 25 °F 35 °F 11 °F (1991)
Degree Days  
Heating Degree Days 26    
Moisture  
Dew Point 32 °F    
Average Humidity 75    
Maximum Humidity 100    
Minimum Humidity 48    
Precipitation  
Precipitation 0.00 in - - ()
Sea Level Pressure  
Sea Level Pressure 30.20 in    
Wind  
Wind Speed 3 mph (SE)    
Max Wind Speed 12 mph    
Max Gust Speed 16 mph    
Visibility 10 miles    
Events      
Averages and records for this station are not official NWS values.
T = Trace of Precipitation, MM = Missing Value Source: NWS Daily Summary

Daily Weather History Graph

Daily Weather History Graph

Search for Another Location

Airport or City:

Trip Planner

Search our weather history database for the weather conditions in past years. The results will help you decide how hot, cold, wet, or windy it might be!

Date:

Astronomy

Nov. 03, 2013 Rise Set
Actual Time 6:35 AM CST 4:54 PM CST
Civil Twilight 6:06 AM CST 5:23 PM CST
Nautical Twilight 5:33 AM CST 5:56 PM CST
Astronomical Twilight 5:01 AM CST 6:28 PM CST
Moon 6:39 AM CST (11/3) 5:09 PM CST (11/3)
Length of Visible Light 11h 17m
Length of Day
10h 19m
New Moon, 0% of the Moon is Illuminated
Nov 3
New Moon
Nov 9
First Quarter
Nov 17
Full
Nov 25
Last Quarter
Dec 2
New

Hourly Weather History & Observations

Time (CST) Temp. Windchill Dew Point Humidity Pressure Visibility Wind Dir Wind Speed Gust Speed Precip Events Conditions
12:15 AM 30.7 °F - 30.7 °F 100% 30.17 in 10.0 mi Calm Calm - N/A   Clear
12:35 AM 28.2 °F - 28.2 °F 100% 30.17 in 10.0 mi Calm Calm - N/A   Clear
12:55 AM 29.8 °F - 29.8 °F 100% 30.18 in 10.0 mi Calm Calm - N/A   Clear
1:15 AM 28.9 °F - 28.9 °F 100% 30.18 in 10.0 mi Calm Calm - N/A   Clear
1:35 AM 28.8 °F - 28.8 °F 100% 30.19 in 10.0 mi Calm Calm - N/A   Clear
1:55 AM 29.3 °F - 29.3 °F 100% 30.20 in 10.0 mi Calm Calm - N/A   Clear
1:15 AM 28.8 °F - 28.8 °F 100% 30.20 in 10.0 mi Calm Calm - N/A   Clear
1:35 AM 28.8 °F - 28.8 °F 100% 30.20 in 10.0 mi Calm Calm - N/A   Clear
1:55 AM 27.9 °F - 27.9 °F 100% 30.21 in 10.0 mi Calm Calm - N/A   Clear
2:15 AM 28.0 °F - 28.0 °F 100% 30.21 in 10.0 mi Calm Calm - N/A   Clear
2:35 AM 27.7 °F - 27.7 °F 100% 30.21 in 10.0 mi Calm Calm - N/A   Clear
2:55 AM 27.5 °F - 27.5 °F 100% 30.21 in 7.0 mi Calm Calm - N/A   Clear
3:15 AM 27.5 °F - 27.5 °F 100% 30.22 in 7.0 mi Calm Calm - N/A   Clear
3:35 AM 28.6 °F - 28.6 °F 100% 30.22 in 7.0 mi Calm Calm - N/A   Clear
3:55 AM 26.6 °F - 26.6 °F 100% 30.22 in 7.0 mi Calm Calm - N/A   Clear
4:15 AM 28.0 °F - 28.0 °F 100% 30.22 in 10.0 mi Calm Calm - N/A   Clear
4:35 AM 26.8 °F - 26.8 °F 100% 30.23 in 10.0 mi Calm Calm - N/A   Clear
4:55 AM 26.2 °F - 26.2 °F 100% 30.23 in 10.0 mi Calm Calm - N/A   Clear
5:15 AM 26.8 °F - 26.8 °F 100% 30.23 in 10.0 mi Calm Calm - N/A   Clear
5:35 AM 27.0 °F - 27.0 °F 100% 30.24 in 10.0 mi Calm Calm - N/A   Clear
5:55 AM 25.0 °F - 25.0 °F 100% 30.24 in 10.0 mi Calm Calm - N/A   Clear
6:15 AM 27.3 °F 22.0 °F 27.3 °F 100% 30.24 in 10.0 mi East 4.6 mph - N/A   Clear
6:35 AM 31.1 °F 26.4 °F 31.1 °F 100% 30.25 in 10.0 mi ESE 4.6 mph - N/A   Clear
6:55 AM 31.6 °F 27.0 °F 31.1 °F 98% 30.25 in 10.0 mi ESE 4.6 mph - N/A   Clear
7:15 AM 31.5 °F 26.8 °F 31.1 °F 99% 30.25 in 10.0 mi ESE 4.6 mph - N/A   Clear
7:35 AM 33.3 °F 30.2 °F 32.2 °F 96% 30.26 in 10.0 mi East 3.5 mph - N/A   Clear
7:55 AM 34.9 °F 30.8 °F 32.9 °F 92% 30.27 in 10.0 mi ESE 4.6 mph - N/A   Clear
8:15 AM 37.2 °F 33.6 °F 34.2 °F 89% 30.27 in 10.0 mi ESE 4.6 mph - N/A   Clear
8:35 AM 39.2 °F 35.0 °F 35.1 °F 85% 30.27 in 10.0 mi ESE 5.8 mph - N/A   Clear
8:55 AM 40.8 °F 36.2 °F 36.0 °F 83% 30.27 in 10.0 mi ESE 6.9 mph - N/A   Clear
9:15 AM 43.0 °F 39.5 °F 36.7 °F 78% 30.26 in 10.0 mi ESE 5.8 mph - N/A   Clear
9:35 AM 44.8 °F 41.6 °F 36.1 °F 72% 30.26 in 10.0 mi ESE 5.8 mph - N/A   Clear
9:55 AM 46.4 °F 42.4 °F 34.9 °F 64% 30.27 in 10.0 mi SSE 8.1 mph - N/A   Clear
10:15 AM 47.8 °F - 35.4 °F 62% 30.27 in 10.0 mi SSE 8.1 mph - N/A   Clear
10:35 AM 49.3 °F - 36.5 °F 61% 30.26 in 10.0 mi SSE 8.1 mph - N/A   Clear
10:55 AM 50.4 °F - 37.0 °F 60% 30.26 in 10.0 mi SE 5.8 mph - N/A   Clear
11:15 AM 50.9 °F - 35.4 °F 55% 30.25 in 10.0 mi SSE 8.1 mph - N/A   Clear
11:35 AM 51.3 °F - 34.2 °F 52% 30.25 in 10.0 mi SE 8.1 mph - N/A   Clear
11:55 AM 52.0 °F - 35.8 °F 54% 30.24 in 10.0 mi SSE 10.4 mph - N/A   Clear
12:15 PM 52.9 °F - 35.6 °F 52% 30.22 in 10.0 mi SSE 8.1 mph - N/A   Clear
12:35 PM 52.9 °F - 35.2 °F 51% 30.21 in 10.0 mi SE 9.2 mph - N/A   Clear
12:55 PM 53.2 °F - 34.7 °F 49% 30.20 in 10.0 mi SE 8.1 mph - N/A   Clear
1:15 PM 52.9 °F - 34.2 °F 49% 30.18 in 10.0 mi SE 8.1 mph 16.1 mph N/A   Clear
1:35 PM 53.1 °F - 34.2 °F 49% 30.18 in 10.0 mi SE 10.4 mph - N/A   Clear
1:55 PM 52.7 °F - 34.3 °F 50% 30.17 in 10.0 mi SE 9.2 mph 16.1 mph N/A   Clear
2:15 PM 53.8 °F - 34.3 °F 48% 30.18 in 10.0 mi SE 10.4 mph - N/A   Clear
2:35 PM 53.2 °F - 34.7 °F 49% 30.17 in 10.0 mi SE 10.4 mph - N/A   Clear
2:55 PM 52.7 °F - 34.5 °F 50% 30.17 in 10.0 mi SE 8.1 mph - N/A   Clear
3:15 PM 52.7 °F - 34.5 °F 50% 30.16 in 10.0 mi SE 11.5 mph 16.1 mph N/A   Clear
3:35 PM 51.1 °F - 33.8 °F 52% 30.16 in 10.0 mi SE 8.1 mph - N/A   Clear
3:55 PM 50.4 °F - 34.0 °F 53% 30.16 in 10.0 mi SE 8.1 mph - N/A   Clear
4:15 PM 49.5 °F - 34.7 °F 57% 30.15 in 10.0 mi ESE 5.8 mph - N/A   Clear
4:35 PM 48.7 °F - 34.3 °F 58% 30.14 in 10.0 mi ESE 6.9 mph - N/A   Clear
4:55 PM 47.7 °F - 34.2 °F 60% 30.14 in 10.0 mi ESE 6.9 mph - N/A   Clear
5:15 PM 47.1 °F - 34.5 °F 62% 30.14 in 10.0 mi ESE 6.9 mph - N/A   Clear
5:35 PM 46.4 °F 44.3 °F 34.0 °F 62% 30.15 in 10.0 mi ESE 4.6 mph - N/A   Clear
5:55 PM 46.0 °F 43.1 °F 33.8 °F 62% 30.14 in 10.0 mi ESE 5.8 mph - N/A   Clear
6:15 PM 45.9 °F 42.3 °F 33.8 °F 63% 30.15 in 10.0 mi ESE 6.9 mph - N/A   Clear
6:35 PM 45.9 °F 41.2 °F 33.8 °F 63% 30.13 in 10.0 mi ESE 9.2 mph - N/A   Clear
6:55 PM 45.5 °F 41.8 °F 34.3 °F 65% 30.14 in 10.0 mi ESE 6.9 mph - N/A   Clear
7:15 PM 45.7 °F 41.5 °F 34.2 °F 64% 30.13 in 10.0 mi ESE 8.1 mph - N/A   Clear
7:35 PM 46.0 °F 41.4 °F 34.0 °F 63% 30.14 in 10.0 mi SE 9.2 mph - N/A   Clear
7:55 PM 46.4 °F 42.4 °F 34.0 °F 62% 30.14 in 10.0 mi ESE 8.1 mph - N/A   Clear
8:15 PM 45.9 °F 42.3 °F 34.0 °F 63% 30.14 in 10.0 mi SE 6.9 mph - N/A   Clear
8:35 PM 46.0 °F 42.5 °F 34.0 °F 63% 30.15 in 10.0 mi SE 6.9 mph - N/A   Clear
8:55 PM 45.7 °F 41.5 °F 34.3 °F 65% 30.14 in 10.0 mi SE 8.1 mph - N/A   Clear
9:15 PM 45.5 °F 41.3 °F 34.7 °F 66% 30.14 in 10.0 mi SE 8.1 mph - N/A   Clear
9:35 PM 45.3 °F 41.6 °F 34.9 °F 67% 30.13 in 10.0 mi SE 6.9 mph - N/A   Clear
9:55 PM 45.5 °F 40.8 °F 35.1 °F 67% 30.15 in 10.0 mi SSE 9.2 mph 16.1 mph N/A   Clear
10:15 PM 46.0 °F 41.4 °F 35.4 °F 66% 30.14 in 10.0 mi SSE 9.2 mph - N/A   Clear
10:35 PM 46.4 °F 41.5 °F 35.6 °F 66% 30.15 in 10.0 mi SSE 10.4 mph - N/A   Clear
10:55 PM 46.4 °F 41.9 °F 35.6 °F 66% 30.15 in 10.0 mi SSE 9.2 mph - N/A   Clear